Location: Beloeil
(45.5670°N, 73.2000°W)
Time: 17:31:34
(UTC-04:00)

Daily predictions for brighter satellites

Satellite Brightness Start Highest point End
(mag) Time Altitude Azimuth Time Altitude Azimuth Time Altitude Azimuth
Cosmos 2369 Rocket 4.1 20:54:38 10° N 20:58:24 18° NE 21:02:08 10° E
Cosmos 2219 Rocket 3.3 20:55:28 10° SW 21:00:58 52° WNW 21:06:29 10° NNE
Cosmos 2058 Rocket 3.1 20:57:00 10° N 21:01:24 69° E 21:05:44 10° SSE
PSLV R/B 4.1 20:58:37 10° SE 21:01:26 34° ENE 21:04:18 10° N
Lacrosse 5 rocket 1.3 21:00:15 10° SSW 21:04:02 57° SE 21:08:02 10° NE
SL-16 R/B 2.3 20:59:34 10° S 21:05:05 57° ESE 21:10:38 10° NNE
deb Chang Zheng 4 3.6 21:04:41 10° NNE 21:09:08 80° ESE 21:13:31 10° SSW
Cosmos 2034 Rocket 4.3 21:03:11 10° N 21:09:28 56° ENE 21:15:40 10° SSE
Cosmos 1666 3.0 21:06:02 10° N 21:09:51 50° ENE 21:13:39 10° SSE
ARGOS 4.3 21:07:16 10° ESE 21:11:53 29° ENE 21:16:31 10° N
Abrixas rocket 2.3 21:09:00 10° WNW 21:12:26 74° SSW 21:15:51 10° ESE
Cosmos 1602 Rocket 4.4 21:09:21 10° SSE 21:13:23 34° E 21:17:26 10° NNE
Meteor 1-23 Rocket 4.3 21:08:26 10° S 21:14:01 70° E 21:19:44 10° NNE
H-2A R/B 3.9 21:11:19 10° E 21:14:07 15° ENE 21:16:57 10° NNE
Okean 2 3.4 21:10:26 10° S 21:14:34 65° E 21:18:45 10° NNE
Aureole 2 Rocket 3.3 21:11:53 10° S 21:15:30 34° ESE 21:18:51 10° NE
Cosmos 1743 3.6 21:15:10 10° NNW 21:18:55 49° W 21:22:36 10° S
Cosmos 494 Rocket 3.9 21:15:26 10° S 21:20:29 67° ESE 21:25:35 10° NNE
Cosmos 1812 Rocket 4.4 21:17:14 10° N 21:21:16 35° ENE 21:25:02 11° SE
SPOT 1/Viking Rocket 4.2 21:17:14 10° SE 21:22:03 41° ENE 21:26:53 10° N
Cosmos 1461 3.3 21:19:07 10° NNW 21:23:26 55° NE 21:27:10 12° SE
Cosmos 1603 4.2 21:28:42 10° S 21:33:49 38° ESE 21:38:59 10° NE
MetOp-B 4.2 21:28:49 10° SSE 21:34:08 72° ENE 21:39:30 10° N
Meteor 2-9 Rocket 4.4 21:30:57 10° NNW 21:36:35 76° W 21:42:20 10° S
H-2A R/B 3.3 21:33:24 10° SSW 21:37:21 39° W 21:41:26 10° NNW
Meteor 2-4 Rocket 4.1 21:33:17 10° SSW 21:39:08 75° WNW 21:45:06 10° N
CZ-2C R/B 3.7 21:39:22 10° WSW 21:40:05 11° W 21:40:47 10° WNW
SPOT 5 2.8 21:38:40 10° S 21:43:06 71° WSW 21:47:28 10° NNW
Cosmos 2333 Rocket 4.1 21:38:55 10° WSW 21:44:02 35° NW 21:49:12 10° NNE
Cosmos 1302 Rocket 4.2 21:41:26 10° NNW 21:46:39 69° WSW 21:51:34 12° S
Cosmos 1626 Rocket 3.5 21:42:52 10° S 21:47:18 76° E 21:51:44 10° NNE
APEX 4.0 21:49:15 10° NW 21:53:02 54° WSW 21:57:11 14° S
Lacrosse 5 3.8 21:53:22 10° W 21:57:55 32° NNW 22:02:28 10° NE
SeaSat 1 3.4 21:53:15 10° S 21:57:55 41° WSW 22:02:36 10° NW
CZ-4B R/B 3.4 21:53:09 10° NNE 21:58:12 76° ESE 22:03:21 10° S
ATLAS CENTAUR R/B 3.5 21:55:16 10° WSW 21:59:57 38° NW 22:04:41 10° NNE
Landsat 7 4.4 21:56:50 18° SE 21:59:58 43° ENE 22:04:29 10° N
Cosmos 1943 4.2 21:57:45 18° SE 22:00:41 27° ESE 22:05:22 10° NE
Cosmos 2228 4.3 21:58:58 10° NNW 22:03:06 40° W 22:07:12 10° SSW
DELTA 2 DEB (DPAF) 4.4 22:02:45 21° SE 22:05:39 58° ENE 22:10:06 10° N
Tsikada Rocket 4.2 22:09:02 10° SSW 22:15:26 75° W 22:21:52 10° N
Cosmos 1943 Rocket 3.7 22:11:01 10° N 22:15:32 25° NE 22:19:29 12° E
YAOGAN 6 3.2 22:13:00 17° S 22:15:39 54° W 22:19:20 10° NNW
Terra 2.4 22:13:06 22° SE 22:15:45 44° ENE 22:20:17 10° N
Atlas Centaur 2 4.0 22:12:10 10° SSW 22:18:16 23° SSE 22:20:37 21° SE
CZ-4C R/B 3.4 22:17:57 25° SSE 22:20:27 82° ENE 22:24:37 10° NNW
COSMOS 2455 2.9 22:14:57 10° SSW 22:20:48 58° ESE 22:26:43 10° NE
ATLAS 3B R/B 3.5 22:18:09 17° SSE 22:23:19 36° ESE 22:30:00 10° NE
USA 81 4.0 22:19:18 10° N 22:24:37 84° E 22:28:05 22° S
SL-8 R/B 4.1 22:20:02 10° W 22:24:51 64° N 22:29:40 10° ENE
SL-08 RB Rocket 3.7 22:23:10 23° S 22:26:02 79° WSW 22:30:36 10° NNW
Cosmos 407 Rocket 4.3 22:25:06 25° SE 22:26:55 32° E 22:31:32 10° NE
Cosmos-2242 4.3 22:26:29 10° NNE 22:30:18 28° ENE 22:31:50 23° ESE
IGS 5A 3.8 22:29:32 30° SE 22:31:16 52° ENE 22:35:19 10° N
USA 234 4.0 22:27:51 20° S 22:32:02 41° SW 22:38:11 10° WNW
Cosmos 1758 Rocket 3.8 22:36:07 33° SSE 22:37:45 51° E 22:42:00 10° NNE
Cosmos 1953 3.6 22:36:54 10° NNE 22:40:20 27° ENE 22:41:17 24° E
CARTOSAT-1 3.5 22:40:38 34° SSE 22:42:29 82° ENE 22:46:51 10° NNW
Cosmos 2369 Rocket 2.2 22:37:37 10° NNW 22:43:20 84° ENE 22:46:13 30° SSE
Lacrosse 5 rocket 3.4 22:40:00 10° W 22:43:32 30° NNW 22:47:17 10° NE
SAR-Lupe-2 3.6 22:47:10 42° S 22:48:14 73° WSW 22:51:51 10° NNW
Abrixas rocket 4.4 22:46:55 10° W 22:48:52 16° SW 22:48:52 16° SW
SL-16 R/B 4.4 22:44:50 10° WSW 22:49:34 27° NW 22:54:21 10° N
Lacrosse 4 Rocket 2.2 22:50:40 31° ESE 22:50:40 31° ESE 22:54:00 10° NE
Cosmos 1805 4.5 22:47:37 10° NNE 22:51:04 28° ENE 22:51:49 26° E
ARGOS 4.0 22:48:13 18° SSW 22:51:56 43° W 22:57:07 10° NNW
Meteor 1-22 Rocket 4.2 22:46:47 10° NNW 22:52:18 83° W 22:55:18 29° S
H-2A R/B 1.9 22:50:29 32° S 22:52:52 81° WSW 22:57:55 10° NNW
Cosmos 1825 Rocket 4.0 22:54:01 22° SSW 22:56:49 60° WNW 23:01:14 10° N
Cosmos 1634 Rocket 4.3 22:52:10 10° NNW 22:58:13 60° W 23:02:13 22° SSW
Cosmos 2263 4.1 22:56:40 10° NNW 23:02:20 86° ENE 23:04:44 36° SSE
COSMOS 2406 4.5 23:02:11 22° ESE 23:02:40 23° E 23:07:00 10° NE
DMSP B5D2-2 4.0 22:59:01 10° NNE 23:04:21 84° ESE 23:07:02 30° S
Cosmos 1346 Rocket 3.2 23:10:07 34° SW 23:11:35 58° WNW 23:15:28 10° N
Cosmos 1190 Rocket 4.1 23:14:26 24° SSW 23:17:43 77° WNW 23:23:04 10° NNE
Cosmos 1758 3.3 23:19:45 10° N 23:23:54 78° E 23:24:30 62° SSE
Cosmos 489 Rocket 4.5 23:20:42 24° SSW 23:24:45 86° WNW 23:31:10 10° NNE
Cosmos 2279 Rocket 4.2 23:19:03 10° NNW 23:25:14 64° W 23:28:19 30° SSW
Spot 4 4.5 23:27:26 33° SSW 23:29:04 46° W 23:33:41 10° NNW
Meteor 1-21 4.5 23:26:42 28° SSW 23:29:51 69° WNW 23:35:41 10° N
Cosmos 1842 3.4 23:32:29 54° SW 23:33:11 67° W 23:37:07 10° N
Cosmos 1707 4.5 23:33:48 21° E 23:33:48 21° E 23:36:28 10° NE
Cosmos 676 Rocket 4.0 23:31:30 38° SSW 23:33:38 89° ESE 23:39:01 10° NNE
Meteor 2-5 Rocket 4.5 23:39:51 35° ESE 23:41:15 40° E 23:46:37 10° NNE
Lacrosse 5 4.3 23:38:13 10° NW 23:42:10 22° N 23:46:06 10° NE
Cosmos 1943 4.0 23:39:28 13° SW 23:44:25 50° WNW 23:49:59 10° NNE
Cosmos 1932 4.5 23:45:42 43° S 23:47:28 59° ESE 23:53:35 10° NE
Cosmos 1140 Rocket 3.5 23:49:49 53° SSE 23:50:50 65° ESE 23:56:03 10° NNE
Terra 3.5 23:51:59 19° WSW 23:53:42 23° W 23:57:27 10° NW
